sat.trackr.live / text

‹ back to catalog

STARLINK-34208

NORAD 64740 · 2025-144S

PAYLOAD ACTIVE UNKNOWN

§ Identity

Operator
Country
US
Launch date
2025-07-02
Launch site
AFETR
Launch vehicle
Mass (kg)
RCS (m²)

Purposes: comms

External: N2YO · Heavens-Above · Gunter

§ Orbital elements

Epoch: 2026-05-25T02:07:48.868320Z

Period
93.85 min
Inclination
53.1589°
Eccentricity
0.0001179
Mean motion
15.34406624 rev/d
Perigee alt
461.9 km
Apogee alt
463.5 km
Semi-major
6,840.8 km
B*
4.2125e-4
RAAN
183.0002°
Arg perigee
85.4745°
Mean anomaly
274.6392°
Rev number
5,145

§ Raw data

STARLINK-342081 64740U 25144S   26145.08876005  .00013886  00000+0  42125-3 0  99912 64740  53.1589 183.0002 0001179  85.4745 274.6392 15.34406624 51452

JSON: /api/v1/satellites/64740 · /tle

For live sub-satellite position, see the globe view (requires WebGL).

§ Visibility from observer

Set your observer location to see the next 7 days of passes ≥ 10°. The values pass through the URL so the page stays shareable.

No JS? Fill the form by hand. The geolocation button needs JavaScript.